Regional Weather Roundup
Issued by NWS

Home | Current Version | Previous Version | Graphics & Text | Print | Product List | Glossary On
Versions: 1 2 3 4 5 6 7 8 9 10 11 12 13 14 15 16 17 18 19 20 21 22 23 24 25 26 27 28 29 30 31 32 33 34 35 36 37 38 39 40 41 42 43 44 45 46 47 48 49 50
000
ASUS43 KDMX 301407
RWRIA

WEATHER ROUNDUP FOR IOWA
NATIONAL WEATHER SERVICE DES MOINES IA
900 AM CDT SAT AUG 30 2014

NOTE: "FAIR" INDICATES FEW OR NO CLOUDS BELOW 12,000 FEET WITH NO
SIGNIFICANT WEATHER AND/OR OBSTRUCTIONS TO VISIBILITY.

* - THESE STATIONS ARE NOT NWS STATIONS...THUS NOT UNDER NWS
QUALITY CONTROL.  THEY ALSO DO NOT REPORT WEATHER SUCH
AS PRECIPITATION OR FOG.

IAZ001>003-012>014-020>022-031>034-043>046-301500-
   NORTHWEST IOWA

CITY           SKY/WX    TMP DP  RH WIND       PRES   REMARKS
CARROLL *      CLOUDY    66  66 100 W7        29.90S FOG
CHEROKEE *     CLOUDY    66  66 100 NW6       29.91S FOG
DENISON *      FOG       66  66 100 NW6       29.91R VSB 1/2
LE MARS *      CLOUDY    63  63 100 W9G17     29.93S
ORANGE CITY *  CLOUDY    66  63  88 W9        29.92S FOG
SHELDON *      CLOUDY    66  66 100 NW6       29.91R
SIOUX CITY     CLOUDY    64  61  90 NW9       29.94R
SPENCER        CLOUDY    67  64  90 NW6       29.91R
STORM LAKE *   CLOUDY    64  64 100 NW8       29.91S FOG
$$

IAZ055>058-069>071-079>083-090>094-301500-
   SOUTHWEST IOWA

CITY           SKY/WX    TMP DP  RH WIND       PRES   REMARKS
ATLANTIC *     CLOUDY    68  66  94 W5        29.91R FOG
AUDUBON *      CLOUDY    70  66  88 NW3       29.92R FOG
CLARINDA *     CLOUDY    68  68 100 VRB3      29.95R FOG
COUNCIL BLFS * CLOUDY    64  64 100 NW8       29.93R FOG
CRESTON *      CLOUDY    68  68 100 W9        29.92S
HARLAN  *      FOG       64  64 100 NW7       29.96R VSB 1/2
LAMONI         CLOUDY    67  66  97 NW9       29.92R FOG
RED OAK *      CLOUDY    68  66  94 VRB3      29.93R
SHENANDOAH *   MOSUNNY   68  66  94 CALM      29.94R
$$

IAZ047>049-059>061-072>074-084-301500-
   CENTRAL IOWA

CITY           SKY/WX    TMP DP  RH WIND       PRES   REMARKS
AMES           CLOUDY    68  66  93 NW7       29.88R
ANKENY *       CLOUDY    68  66  94 NW9       29.88R
CHARITON *     CLOUDY    66  66 100 W8        29.91R FOG
DES MOINES     CLOUDY    69  66  90 W8        29.88S
GRINNELL*      CLOUDY    68  64  88 W9        29.88S
KNOXVILLE *    CLOUDY    68  66  94 W13       29.88R
MARSHALLTOWN   CLOUDY    69  66  90 W10       29.86R
PELLA *        PTSUNNY   70  66  88 W6        29.89R
PERRY *        CLOUDY    68  66  94 NW3       29.90R
$$

IAZ004>006-015-016-023>025-035-036-301500-
   NORTH CENTRAL IOWA

CITY           SKY/WX    TMP DP  RH WIND       PRES   REMARKS
ALGONA *       CLOUDY    68  66  94 NW7G14    29.89R
CLARION *      CLOUDY    66  66 100 NW8       29.88R
ESTHERVILLE    PTSUNNY   66  64  93 NW10      29.89R
FORT DODGE *   CLOUDY    66  64  94 NW6       29.89S
MASON CITY     CLOUDY    69  67  93 NW9       29.87R
FOREST CITY *  CLOUDY    68  68 100 NW8       29.87R FOG
IOWA FALLS *   CLOUDY    68  64  88 NW9       29.88R
$$

IAZ007>011-017>019-026>030-037>042-050>054-066-301500-
   NORTHEAST IOWA

CITY           SKY/WX    TMP DP  RH WIND       PRES   REMARKS
CEDAR RAPIDS   CLOUDY    69  68  96 W13       29.84R
CHARLES CITY * CLOUDY    70  66  88 NW8       29.84S
CLINTON *      CLOUDY    70  64  83 W12       29.86R
DECORAH *      CLOUDY    66  66 100 NW8       29.80R
DUBUQUE        CLOUDY    67  66  97 SW13      29.81R
MONTICELLO *   CLOUDY    70  68  94 W10       29.82R
OELWEIN *      CLOUDY    68  66  94 NW13G20   29.84R
WATERLOO       CLOUDY    68  66  93 W8        29.83R
$$

IAZ064-065-067-068-078-301500-
   EAST CENTRAL IOWA

CITY           SKY/WX    TMP DP  RH WIND       PRES   REMARKS
DAVENPORT      CLOUDY    70  66  87 SW15      29.86R
IOWA CITY      CLOUDY    70  67  90 W13       29.86R
MT. PLEASANT * PTSUNNY   72  68  88 W10       29.89R
MUSCATINE *    PTSUNNY   73  68  83 W10       29.86R
QUAD CITIES    CLOUDY    71  67  87 SW10      29.85R
$$

IAZ062-063-075>077-085>089-095>099-301500-
   SOUTHEAST IOWA

CITY           SKY/WX    TMP DP  RH WIND       PRES   REMARKS
BURLINGTON     PTSUNNY   72  68  87 SW10      29.88S
FAIRFIELD *    MOSUNNY   72  66  83 W9        29.89R
FORT MADISON * PTSUNNY   73  70  88 SW6       29.90R
KEOKUK *       PTSUNNY   73  70  88 SW12      29.89S
OSKALOOSA *      N/A     70  66  88 NW9       29.88S
CENTERVILLE *  CLOUDY    68  68 100 SW6       29.92R
OTTUMWA        SUNNY     70  66  87 W6        29.88R
WASHINGTON *   MOSUNNY   72  68  88 SW9       29.88R
$$

ABBREVIATIONS USED IN REMARKS
   TC - TEMPERATURES IN CELSIUS
  WCI - WIND CHILL INDEX
   HX - HEAT INDEX
  VSB - VISIBILITY
$$



USA.gov is the U.S. government's official web portal to all federal, state and local government web resources and services.